• In Romania
  • List of Countries
  • For 7 days
  • Water Temperature
  • Satellite Maps
  • Weather Map
  • Weather Widgets
  • user-avatar
    Login

    Hourly Weather Lozenec

    Today, 18 October, Wednesday

    Time Temperature Precipitation Wind Pressure Humidity
    00:00 +18°C° 0 mm 1 mps 765 mmHg 53%
    01:00 +18°C° 0 mm 1 mps 765 mmHg 53%
    02:00 +16°C° 0 mm 1 mps 765 mmHg 54%
    03:00 +16°C° 0 mm 1 mps 764 mmHg 54%
    04:00 +15°C° 0 mm 0 mps 764 mmHg 55%
    05:00 +15°C° 0 mm 0 mps 764 mmHg 55%
    06:00 +16°C° 0 mm 0 mps 764 mmHg 53%
    07:00 +17°C° 0 mm 0 mps 764 mmHg 52%
    08:00 +20°C° 0 mm 1 mps 764 mmHg 47%
    09:00 +22°C° 0 mm 1 mps 764 mmHg 42%
    10:00 +24°C° 0 mm 1 mps 764 mmHg 37%
    11:00 +26°C° 0 mm 1 mps 763 mmHg 32%
    12:00 +26°C° 0 mm 1 mps 763 mmHg 32%
    13:00 +27°C° 0 mm 2 mps 763 mmHg 32%
    14:00 +27°C° 0 mm 2 mps 762 mmHg 31%
    15:00 +25°C° 0 mm 2 mps 762 mmHg 38%
    16:00 +24°C° 0 mm 2 mps 762 mmHg 45%
    17:00 +21°C° 0 mm 2 mps 761 mmHg 52%
    18:00 +20°C° 0 mm 2 mps 761 mmHg 54%
    19:00 +19°C° 0 mm 2 mps 761 mmHg 57%
    20:00 +17°C° 0 mm 2 mps 761 mmHg 60%
    21:00 +17°C° 0 mm 2 mps 761 mmHg 59%
    22:00 +18°C° 0 mm 1 mps 761 mmHg 59%
    23:00 +16°C° 0 mm 1 mps 761 mmHg 58%

    Tomorrow, 19 October, Thursday

    Time Temperature Precipitation Wind Pressure Humidity
    00:00 +16°C° 0 mm 1 mps 761 mmHg 59%
    01:00 +16°C° 0 mm 1 mps 761 mmHg 59%
    02:00 +16°C° 0 mm 1 mps 761 mmHg 59%
    03:00 +15°C° 0 mm 1 mps 761 mmHg 59%
    04:00 +15°C° 0 mm 1 mps 760 mmHg 59%
    05:00 +15°C° 0 mm 1 mps 760 mmHg 59%
    06:00 +16°C° 0 mm 1 mps 760 mmHg 57%
    07:00 +18°C° 0 mm 1 mps 760 mmHg 56%
    08:00 +19°C° 0 mm 1 mps 760 mmHg 54%
    09:00 +21°C° 0 mm 1 mps 760 mmHg 48%
    10:00 +24°C° 0 mm 1 mps 760 mmHg 42%
    11:00 +26°C° 0 mm 1 mps 760 mmHg 36%
    12:00 +26°C° 0 mm 1 mps 760 mmHg 35%
    13:00 +27°C° 0 mm 1 mps 760 mmHg 34%
    14:00 +27°C° 0 mm 2 mps 760 mmHg 33%
    15:00 +26°C° 0 mm 2 mps 759 mmHg 40%
    16:00 +24°C° 0 mm 2 mps 759 mmHg 46%
    17:00 +23°C° 0 mm 2 mps 759 mmHg 52%
    18:00 +21°C° 0 mm 2 mps 759 mmHg 56%
    19:00 +19°C° 0 mm 2 mps 760 mmHg 59%
    20:00 +18°C° 0 mm 2 mps 760 mmHg 63%
    21:00 +18°C° 0 mm 2 mps 760 mmHg 64%
    22:00 +18°C° 0 mm 2 mps 760 mmHg 64%
    23:00 +18°C° 0 mm 1 mps 760 mmHg 65%

    Day after tomorrow, 20 October, Friday

    Time Temperature Precipitation Wind Pressure Humidity
    00:00 +18°C° 0 mm 1 mps 760 mmHg 65%
    01:00 +18°C° 0 mm 1 mps 760 mmHg 66%
    02:00 +18°C° 0 mm 1 mps 760 mmHg 67%
    03:00 +16°C° 0 mm 1 mps 759 mmHg 67%
    04:00 +16°C° 0 mm 1 mps 759 mmHg 68%
    05:00 +16°C° 0 mm 1 mps 759 mmHg 68%
    06:00 +18°C° 0 mm 1 mps 759 mmHg 65%
    07:00 +19°C° 0 mm 1 mps 760 mmHg 62%
    08:00 +19°C° 0 mm 1 mps 760 mmHg 60%
    09:00 +22°C° 0 mm 1 mps 760 mmHg 52%
    10:00 +24°C° 0 mm 1 mps 760 mmHg 45%
    11:00 +26°C° 0 mm 1 mps 760 mmHg 37%
    12:00 +27°C° 0 mm 1 mps 760 mmHg 35%
    13:00 +27°C° 0 mm 1 mps 760 mmHg 33%
    14:00 +28°C° 0 mm 1 mps 759 mmHg 31%
    15:00 +26°C° 0 mm 1 mps 759 mmHg 36%
    16:00 +25°C° 0 mm 2 mps 759 mmHg 41%
    17:00 +23°C° 0 mm 2 mps 759 mmHg 46%
    18:00 +21°C° 0 mm 2 mps 759 mmHg 48%
    19:00 +20°C° 0 mm 2 mps 760 mmHg 51%
    20:00 +20°C° 0 mm 1 mps 760 mmHg 54%
    21:00 +19°C° 0 mm 1 mps 760 mmHg 54%
    22:00 +19°C° 0 mm 1 mps 760 mmHg 54%
    23:00 +19°C° 0 mm 1 mps 760 mmHg 54%

    21 October, Saturday

    Time Temperature Precipitation Wind Pressure Humidity
    00:00 +19°C° 0 mm 1 mps 760 mmHg 54%
    01:00 +18°C° 0 mm 1 mps 760 mmHg 54%
    02:00 +18°C° 0 mm 1 mps 760 mmHg 55%
    03:00 +18°C° 0 mm 1 mps 760 mmHg 55%
    04:00 +18°C° 0 mm 1 mps 760 mmHg 56%
    05:00 +16°C° 0 mm 1 mps 760 mmHg 57%
    06:00 +17°C° 0 mm 2 mps 760 mmHg 56%
    07:00 +18°C° 0 mm 2 mps 760 mmHg 55%
    08:00 +19°C° 0 mm 2 mps 761 mmHg 55%
    09:00 +20°C° 0 mm 2 mps 761 mmHg 51%
    10:00 +23°C° 0 mm 2 mps 761 mmHg 46%
    11:00 +25°C° 0 mm 3 mps 761 mmHg 42%
    12:00 +25°C° 0 mm 3 mps 761 mmHg 41%
    13:00 +25°C° 0 mm 3 mps 760 mmHg 41%
    14:00 +26°C° 0 mm 3 mps 760 mmHg 40%
    15:00 +24°C° 0 mm 3 mps 760 mmHg 47%
    16:00 +22°C° 0 mm 3 mps 760 mmHg 53%
    17:00 +20°C° 0 mm 3 mps 760 mmHg 60%
    18:00 +19°C° 0 mm 4 mps 761 mmHg 68%
    19:00 +18°C° 0 mm 4 mps 761 mmHg 76%
    20:00 +15°C° 0 mm 4 mps 761 mmHg 83%
    21:00 +15°C° 0 mm 4 mps 761 mmHg 87%
    22:00 +16°C° 0 mm 3 mps 761 mmHg 90%
    23:00 +16°C° 0 mm 3 mps 762 mmHg 93%

    22 October, Sunday

    Time Temperature Precipitation Wind Pressure Humidity
    00:00 +15°C° 0 mm 4 mps 761 mmHg 93%
    01:00 +15°C° 0 mm 4 mps 761 mmHg 94%
    02:00 +15°C° 0 mm 4 mps 761 mmHg 94%
    03:00 +15°C° 0 mm 4 mps 761 mmHg 93%
    04:00 +15°C° 0 mm 4 mps 761 mmHg 93%
    05:00 +15°C° 0 mm 4 mps 761 mmHg 93%
    06:00 +15°C° 0 mm 4 mps 761 mmHg 91%
    07:00 +15°C° 0 mm 4 mps 761 mmHg 89%
    08:00 +17°C° 0 mm 4 mps 761 mmHg 86%
    09:00 +18°C° 0 mm 4 mps 761 mmHg 79%
    10:00 +19°C° 0 mm 4 mps 761 mmHg 73%
    11:00 +20°C° 0 mm 4 mps 761 mmHg 66%
    12:00 +21°C° 0 mm 4 mps 761 mmHg 63%
    13:00 +21°C° 0 mm 4 mps 760 mmHg 61%
    14:00 +21°C° 0 mm 4 mps 760 mmHg 59%
    15:00 +20°C° 0 mm 4 mps 759 mmHg 65%
    16:00 +19°C° 0 mm 4 mps 759 mmHg 72%
    17:00 +18°C° 0 mm 4 mps 759 mmHg 78%
    18:00 +17°C° 0 mm 3 mps 759 mmHg 84%
    19:00 +16°C° 0 mm 3 mps 759 mmHg 89%
    20:00 +14°C° 0 mm 3 mps 759 mmHg 95%
    21:00 +14°C° 0 mm 3 mps 759 mmHg 96%
    22:00 +14°C° 0 mm 3 mps 759 mmHg 96%
    23:00 +14°C° 0 mm 3 mps 759 mmHg 97%

    23 October, Monday

    Time Temperature Precipitation Wind Pressure Humidity
    00:00 +14°C° 0 mm 3 mps 759 mmHg 97%
    01:00 +14°C° 0 mm 3 mps 758 mmHg 96%
    02:00 +14°C° 0 mm 3 mps 758 mmHg 96%
    03:00 +14°C° 0 mm 3 mps 758 mmHg 96%
    04:00 +14°C° 0 mm 3 mps 758 mmHg 96%
    05:00 +13°C° 0 mm 3 mps 757 mmHg 96%
    06:00 +14°C° 0 mm 3 mps 757 mmHg 93%
    07:00 +14°C° 0 mm 3 mps 757 mmHg 90%
    08:00 +16°C° 0 mm 3 mps 757 mmHg 88%
    09:00 +17°C° 0 mm 4 mps 757 mmHg 80%
    10:00 +18°C° 0 mm 4 mps 757 mmHg 73%
    11:00 +19°C° 0 mm 4 mps 757 mmHg 66%
    12:00 +19°C° 0 mm 4 mps 756 mmHg 65%
    13:00 +20°C° 0 mm 4 mps 756 mmHg 64%
    14:00 +20°C° 0 mm 5 mps 755 mmHg 64%
    15:00 +19°C° 0 mm 5 mps 755 mmHg 69%
    16:00 +17°C° 0 mm 5 mps 755 mmHg 74%
    17:00 +16°C° 0 mm 5 mps 755 mmHg 80%
    18:00 +15°C° 0 mm 5 mps 755 mmHg 84%
    19:00 +15°C° 0 mm 5 mps 755 mmHg 88%
    20:00 +14°C° 0 mm 5 mps 755 mmHg 91%
    21:00 +14°C° 0 mm 5 mps 755 mmHg 92%
    22:00 +14°C° 0 mm 4 mps 755 mmHg 93%
    23:00 +14°C° 0 mm 4 mps 755 mmHg 93%
    Show more